Погода в Джубе

Южный Судан     4°50′59″N   31°34′55″E
темп.,
°C
ветер,
м/с
пор.,
м/с
влажн.,
%
обл.,
%
осадки,
мм/ч
давл.,
гПа
погр.,
м
27 ноября, сб
сб2723:00+25ююз255358 0.3 101099
02:00+23ю4106223 0.4 1010301
05:00+22ю397677 0.0 1011328
08:00+26ю356062 0.1 1013501
11:00+35юв123370 0.0 10101841
14:00+33вюв3235100 0.2 10072306
17:00+28сз1156100 1.1 1008241
20:00+26сз126342 1.2 101075
28 ноября, вс
вс2823:00+25ссз116898 0.0 101011
02:00+24ююз22705 0.0 100830
05:00+23ю2376100 0.1 101064
08:00+28ююв2354100 0.2 1011459
11:00+35вюв133398 0.0 10091925
14:00+34вюв3433100 0.2 10052424
17:00+31ю34425 0.3 1006475
20:00+26ю386342 0.3 1009335
29 ноября, пн
пн2923:00+24ююз247317 0.9 1009114
02:00+23ю24745 0.9 1008100
05:00+23ю237728 0.0 100979
08:00+27ю34555 0.0 1010445
11:00+35юв24335 0.0 10081796
14:00+35всв2428100 0.0 10042826
17:00+32ююв2435100 0.3 1004188
20:00+30ссв1139100 0.3 100612
30 ноября, вт
вт3023:00+28з224696 0.1 100817
02:00+25з245699 0.1 100798
05:00+25зюз116196 0.0 100914
08:00+29ююз2248100 0.0 1010512
11:00+36ююв233050 0.0 10081949
14:00+37св2425100 0.0 10043385
17:00+33вюв2432100 0.1 1004323
20:00+30з113787 0.1 100612
1 декабря, ср
ср123:00+29сз244087 0.0 1007107
02:00+27з2254100 0.0 100647
05:00+26ююв1254100 0.0 100891
08:00+29ю234873 0.0 1009566
11:00+35ююв233196 0.0 10071799
14:00+37юв2324100 0.0 10033402
17:00+33ююв1332100 0.1 1003136
20:00+30зсз3744100 0.3 1006298